STARLINK-33581 (62784 NORAD) Tracking and Keplerian Element Data

This shows tracking and keplerian element data for the satellite.

Feedback or suggestion? Click here.




ElementValue
Catalog62784
NameSTARLINK-33581
Epoch Orbit337
Epoch Day35.16668981
Epoch Year2025
RAAN19.0179
Inclination53.1597
Eccentricity0.0001223
Argument of Perigee81.519
Mean Anonmoly117.5802
Mean Motion15.77914008
Decay Rate-0.01222437
L11 62784U 25015AC 25035.16668981 -.01222437 00000+0 -79973-2 0 9999
L22 62784 53.1597 19.0179 0001223 81.5190 117.5802 15.77914008 3377



Live tracking and technical data element details for STARLINK-33581 (NORAD 62784). STARLINK-33581 can be tracked NOW for your location showing map with azimuth and elevation plus other details from your city location.







IsCatalogInMostPopularTable: catalog: 62784, numindb: 4
Update: records affected: 1



GetName: 62784 STARLINK-33581

Hit Count: updated at: Sun, 09 Feb 2025 14:30:05 GMT